{"data":{"norad_id":37153,"intl_designator":"2010-043B","name":"STRELA 3","alt_names":[],"object_type":"PAYLOAD","status":"ACTIVE","operator":null,"country":"CIS","launch_date":"2010-09-08","launch_site_code":"PLMSC","launch_vehicle":null,"mission":null,"orbit_class":"UNKNOWN","rcs_meters":0.912,"size_class":null,"mass_kg":null,"dimensions":null,"purposes":[],"wikipedia_slug":null,"has_3d_model":false,"image_url":null,"decayed_at":null,"tle_current":{"epoch":"2026-09-20T03:12:44.981280Z","epoch_age_seconds":57403,"freshness":"FRESH","line1":"1 37153U 10043B   26263.13385395  .00000080  00000+0  52139-3 0  9993","line2":"2 37153  82.4621  19.2576 0006954 231.9615 128.0836 12.40794358726146","mean_motion":12.40794358,"eccentricity":0.0006954,"inclination_deg":82.4621,"raan_deg":19.2576,"arg_perigee_deg":231.9615,"mean_anomaly_deg":128.0836,"bstar":0.00052139,"rev_number":72614,"period_min":116.05468631572,"perigee_km":1497.7568567163,"apogee_km":1508.7182724607,"semimajor_km":7881.3745645885,"source":"CELESTRAK","updated_at":"2026-09-20T09:00:13.757025Z"}}}